Skip Page Navigation
NASA JPL Caltech
NASA Logo - Jet Propulsion Laboratory + View the NASA Portal
+ Center for Near-Earth Object Studies
JPL Home Earth Solar System Stars & Galaxies Technology
JPL Solar System Dynamics
BODIES ORBITS EPHEMERIDES TOOLS PHYSICAL DATA DISCOVERY FAQ SITE MAP
JPL Small-Body Database Browser
Search: [ help ]  
344788 (2003 XG34)
Classification: Main-belt Asteroid          SPK-ID: 2344788
Ephemeris | Orbit Diagram | Orbital Elements | Mission Design | Physical Parameters | Discovery Circumstances | Close-Approach Data ]

[ show orbit diagram ]
Orbital Elements at Epoch 2459000.5 (2020-May-31.0) TDB
Reference: JPL 8 (heliocentric ecliptic J2000)
 Element Value Uncertainty (1-sigma)   Units 
e .1010967302869397 1.0374e-07  
a 2.783740416801952 4.1805e-08 au
q 2.502313362695672 2.9679e-07 au
i 4.42010686006479 1.2209e-05 deg
node 72.02410344966236 0.00012371 deg
peri 317.3590149211139 0.00013678 deg
M 232.448841494391 5.649e-05 deg
tp 2459601.567762909178
(2022-Jan-22.06776291)
0.00027146 TDB
period 1696.451817313667
4.64
3.8215e-05
1.046e-07
d
yr
n .2122076184692709 4.7802e-09 deg/d
Q 3.065167470908231 4.6031e-08 au
  Orbit Determination Parameters
   # obs. used (total)      66  
   data-arc span      5142 days (14.08 yr)  
   first obs. used      2003-11-24  
   last obs. used      2017-12-22  
   planetary ephem.      DE431  
   SB-pert. ephem.      SB431-N16  
   condition code      0  
   norm. resid. RMS      .53582  
   source      ORB  
   producer      Otto Matic  
   solution date      2020-Feb-25 23:06:11  

Additional Information
 Earth MOID = 1.50985 au 
 Jupiter MOID = 2.34896 au 
 T_jup = 3.320 
[ show covariance matrix ]

Ephemeris | Orbit Diagram | Orbital Elements | Mission Design | Physical Parameters | Discovery Circumstances | Close-Approach Data ]

Physical Parameter Table
Parameter Symbol Value Units Sigma Reference Notes
absolute magnitude H 17.1   n/a MPO434170  

344788 (2003 XG34)          Discovered 2003-Dec-01 by Spacewatch at Kitt Peak
Reference: 20121128/Numbers.arcLast Updated: 2012-12-03

[ show close-approach data ]
Alternate Designations
 2003 XG34 = 2009 AC5 
Ephemeris | Orbit Diagram | Orbital Elements | Mission Design | Physical Parameters | Discovery Circumstances | Close-Approach Data ]
ABOUT SSD CREDITS/AWARDS PRIVACY/COPYRIGHT GLOSSARY LINKS
FirstGov 2020-Aug-06 14:15 UT
(server date/time)  
NASA Home Page
Site Manager:   Ryan S. Park
Webmaster  Alan B. Chamberlin